Location: ??????????
(54.4061°N, 22.6114°E)
Time: 21:39:50
(UTC+00:00)

NOAA 11 - Pass Details

Date: 23 October 2019
Orbit: 833 x 850 km, 98.4° (Epoch: 17 November)

Event Time Altitude Azimuth Distance (km) Brightness Sun altitude
Rises 16:56:59 0° 159° (SSE) 3,381 7.1 -15.6°
Reaches altitude 10° 16:59:20 10° 158° (SSE) 2,448 6.4 -15.9°
Maximum altitude 17:04:46 82° 72° (ENE) 852 4.1 -16.7°
Drops below altitude 10° 17:10:13 10° 346° (NNW) 2,458 6.8 -17.5°
Sets 17:12:35 0° 345° (NNW) 3,396 7.6 -17.8°
